Content
SEND FEEDBACK

Daily
Averages
Monthly
Summary
Germany

WITTENBERGE, GERMANY


Home > Europe > Germany
Elevation: 85 feet     Latitude: 53 02N     Longitude: 011 48E

WEATHER
 
SELECT A DAY
Number of Records: 27,156;   Date Range: 3/22/99 - 12/21/14
 
SHARE

PRINT THIS DATA

[ ← Previous Day ]
WEATHER ALMANAC - JANUARY 31, 2013
[ Next Day → ]
[ °C ]   °F
Weather ElementAverageHighLow
Temperature42.1 °F44.6 °F (2:20 pm)41 °F (7:20 am)
Dewpoint37.5 °F39.2 °F (7:20 am)35.6 °F (3:20 am)
Humidity84 %93 % (7:20 am)71 % (2:20 pm)
Barometer29.50 in29.59 in (10:20 am)29.44 in (5:20 pm)
Wind Speed21 mph29.9 mph (6:20 am)
Wind Gust47.2 mph (6:20 am)
Weather ElementAverage
Visibility6 mi
Wind DirectionWSW (261.7 °)

Weather ElementTotal
Precipitation---
Heating Degree Days22.2 (Base 65)
Averaged from 23 records on January 31, 2013
WEATHER CONDITIONS BREAKOUT
WIND DIRECTION BREAKOUT
WEATHER BY HOUR - JANUARY 31, 2013
[ °C ]   °F
Local TimeTemperatureDewpointHumidityBarometerVisibilityWind DirectionWind SpeedGust SpeedPrecipitationEventsConditions
1:20 AM42.8 °F37.4 °F81 %29.47 in6.2 miWest (270°)24.2 mph36.8 mphMostly Cloudy
2:20 AM42.8 °F37.4 °F81 %29.47 in6.2 miWest (270°)25.3 mph41.4 mphMostly Cloudy
3:20 AM42.8 °F35.6 °F76 %29.50 in6.2 miWest (270°)26.5 mph40.3 mphMostly Cloudy
4:20 AM42.8 °F35.6 °F76 %29.47 in6.2 miWest (260°)26.5 mph44.9 mphRainLight Rain
5:20 AM42.8 °F37.4 °F81 %29.50 in5.6 miWest (270°)23.0 mph38.0 mphMostly Cloudy
6:20 AM42.8 °F37.4 °F81 %29.50 in6.2 miWest (270°)29.9 mph47.2 mphRainLight Rain
7:20 AM41.0 °F39.2 °F93 %29.53 in5.6 miWest (270°)29.9 mph47.2 mphRainLight Rain
8:20 AM41.0 °F37.4 °F87 %29.53 in6.2 miWest (270°)25.3 mph38.0 mphRainLight Rain
9:20 AM42.8 °F35.6 °F76 %29.56 in6.2 miWest (260°)28.8 mph42.6 mphRainLight Rain
10:20 AM42.8 °F35.6 °F76 %29.59 in6.2 miWest (270°)25.3 mph38.0 mphMostly Cloudy
11:20 AM42.8 °F35.6 °F76 %29.59 in6.2 miWest (270°)24.2 mphMostly Cloudy
12:20 PM42.8 °F35.6 °F76 %29.59 in6.2 miWest (260°)21.9 mph39.1 mphMostly Cloudy
1:20 PM42.8 °F35.6 °F76 %29.56 in6.2 miWest (260°)18.4 mphMostly Cloudy
2:20 PM44.6 °F35.6 °F71 %29.53 in6.2 miWSW (250°)15.0 mph26.5 mphMostly Cloudy
3:20 PM42.8 °F37.4 °F81 %29.50 in6.2 miWSW (250°)12.7 mphRainLight Rain
4:20 PM41.0 °F39.2 °F93 %29.47 in4.3 miWSW (250°)18.4 mph32.2 mphRainLight Rain
5:20 PM41.0 °F39.2 °F93 %29.44 in5.6 miWSW (250°)15.0 mphRainLight Rain
6:20 PM41.0 °F39.2 °F93 %29.44 in6.2 miWSW (240°)11.5 mphMostly Cloudy
7:20 PM41.0 °F39.2 °F93 %29.44 in6.2 miWest (260°)12.7 mphMostly Cloudy
8:20 PM41.0 °F39.2 °F93 %29.47 in6.2 miWest (270°)18.4 mphRainLight Rain
9:20 PM41.0 °F39.2 °F93 %29.47 in6.2 miWest (270°)18.4 mphRainLight Rain
10:20 PM41.0 °F39.2 °F93 %29.47 in6.2 miWest (260°)16.1 mphRainLight Rain
11:20 PM41.0 °F39.2 °F93 %29.44 in6.2 miWSW (250°)15.0 mphRainLight Rain
Hourly data recorded from EDOP, located miles away from Wittenberge, Germany







STORIES FROM OUR PARTNERS